Weather History for Erzurum, Turkey

Change the Weather History Date:

Thursday, February 14, 2013

  Actual Average Record
Temperature  
Mean Temperature 9 °F -  
Max Temperature 25 °F 33 °F 48 °F (2005)
Min Temperature -7 °F 17 °F -23 °F (2005)
Degree Days  
Heating Degree Days 56    
Moisture  
Dew Point 7 °F    
Average Humidity 88    
Maximum Humidity 100    
Minimum Humidity 74    
Precipitation  
Precipitation 0.00 in 0.04 in - ()
Sea Level Pressure  
Sea Level Pressure 30.21 in    
Wind  
Wind Speed 4 mph ()    
Max Wind Speed 24 mph    
Max Gust Speed -    
Visibility 2.9 miles    
Events Fog    
Averages and records for this station are not official NWS values.
T = Trace of Precipitation, MM = Missing Value Source: Averaged Metar Reports

Daily Weather History Graph

Daily Weather History Graph

Search for Another Location

Airport:

Trip Planner

Search our weather history database for the weather conditions in past years. The results will help you decide how hot, cold, wet, or windy it might be!

Date:

Astronomy

Feb. 14, 2013 Rise Set
Actual Time 6:09 AM EET 4:50 PM EET
Civil Twilight 5:41 AM EET 5:17 PM EET
Nautical Twilight 5:09 AM EET 5:49 PM EET
Astronomical Twilight 4:38 AM EET 6:21 PM EET
Moon 7:59 AM EET (2/14) 9:31 PM EET (2/14)
Length of Visible Light 11h 36m
Length of Day
10h 40m
Waxing Crescent, 19% of the Moon is Illuminated
Feb 14
Waxing Crescent
Feb 17
First Quarter
Feb 25
Full
Mar 4
Last Quarter
Mar 11
New

Hourly Weather History & Observations

Time (EET) Temp. Windchill Dew Point Humidity Pressure Visibility Wind Dir Wind Speed Gust Speed Precip Events Conditions
12:20 AM -4.0 °F - -5.8 °F 92% 30.27 in 0.2 mi SE 2.3 mph - N/A Fog Light Freezing Fog
12:50 AM -2.2 °F - -4.0 °F 92% 30.27 in 0.2 mi Calm Calm - N/A Fog Light Freezing Fog
1:20 AM -4.0 °F - -5.8 °F 92% 30.27 in 0.2 mi Variable 1.2 mph - N/A Fog Light Freezing Fog
1:50 AM -4.0 °F - -5.8 °F 92% 30.27 in 0.2 mi Variable 1.2 mph - N/A Fog Light Freezing Fog
2:00 AM -4 °F - -4 °F 100%  in 0 mi West 1.2 mph - - Fog Fog
2:20 AM -4.0 °F - -7.6 °F 85% 30.27 in 0.2 mi Variable 1.2 mph - N/A Fog Light Freezing Fog
2:50 AM -5.8 °F - -9.4 °F 84% 30.27 in 0.2 mi Calm Calm - N/A Fog Light Freezing Fog
3:20 AM -4.0 °F - -7.6 °F 85% 30.27 in 0.2 mi Calm Calm - N/A Fog Light Freezing Fog
3:50 AM -4.0 °F - -7.6 °F 85% 30.27 in 0.2 mi Variable 1.2 mph - N/A Fog Light Freezing Fog
4:20 AM -5.8 °F - -9.4 °F 84% 30.27 in 0.2 mi Calm Calm - N/A Fog Light Freezing Fog
4:50 AM -5.8 °F - -9.4 °F 84% 30.27 in 0.2 mi Calm Calm - N/A Fog Light Freezing Fog
5:20 AM -7.6 °F - -9.4 °F 92% 30.27 in 0.2 mi Calm Calm - N/A Fog Light Freezing Fog
5:50 AM -7.6 °F - -9.4 °F 92% 30.27 in 0.2 mi Calm Calm - N/A Fog Light Freezing Fog
6:20 AM -7.6 °F - -9.4 °F 92% 30.27 in 0.2 mi Calm Calm - N/A Fog Light Freezing Fog
6:50 AM -5.8 °F - -9.4 °F 84% 30.27 in 0.2 mi Calm Calm - N/A Fog Light Freezing Fog
7:20 AM -7.6 °F - -9.4 °F 92% 30.30 in 0.2 mi Calm Calm - N/A Fog Light Freezing Fog
7:50 AM -4.0 °F - -7.6 °F 85% 30.30 in 0.2 mi Calm Calm - N/A Fog Light Freezing Fog
8:00 AM -5 °F - -5 °F 100%  in 0 mi Calm Calm - - Fog Fog
8:20 AM -2.2 °F - -4.0 °F 92% 30.27 in 0.2 mi Calm Calm - N/A Fog Light Freezing Fog
8:50 AM -0.4 °F - -2.2 °F 92% 30.27 in - Calm Calm - N/A Fog Patches of Fog
9:20 AM 5.0 °F - 3.2 °F 92% 30.27 in 0.7 mi Calm Calm - N/A   Mist
9:50 AM 1.4 °F - -0.4 °F 92% 30.27 in 1.0 mi NNW 2.3 mph - N/A   Mist
10:20 AM 8.6 °F - 6.8 °F 92% 30.27 in 1.2 mi Variable 1.2 mph - N/A   Mist
10:50 AM 12.2 °F 4.3 °F 10.4 °F 92% 30.24 in 2.5 mi East 4.6 mph - N/A   Mist
11:20 AM 14.0 °F 1.2 °F 14.0 °F 100% 30.24 in 3.7 mi NE 10.4 mph - N/A   Unknown
11:50 AM 17.6 °F 8.2 °F 15.8 °F 93% 30.24 in 3.7 mi SE 6.9 mph - N/A   Unknown
12:20 PM 19.4 °F 14.3 °F 14.0 °F 80% 30.24 in 3.7 mi South 3.5 mph - N/A   Unknown
12:50 PM 23.0 °F - 15.8 °F 74% 30.24 in 4.3 mi Variable 2.3 mph - N/A   Partly Cloudy
1:20 PM 23.0 °F 14.7 °F 17.6 °F 80% 30.21 in 4.3 mi East 6.9 mph - N/A   Partly Cloudy
1:50 PM 23.0 °F 8.3 °F 19.4 °F 86% 30.21 in 4.3 mi East 19.6 mph - N/A   Partly Cloudy
2:00 PM 23 °F - 20 °F 83%  in 4 mi East 19.6 mph - -   Mist
2:20 PM 23.0 °F 8.3 °F 19.4 °F 86% 30.18 in 4.3 mi East 19.6 mph - N/A   Partly Cloudy
2:50 PM 23.0 °F 6.9 °F 17.6 °F 80% 30.18 in - East 24.2 mph - N/A   Clear
3:20 PM 21.2 °F 5.6 °F 17.6 °F 86% 30.18 in - East 20.7 mph - N/A   Clear
3:50 PM 21.2 °F 8.9 °F 17.6 °F 86% 30.18 in 4.3 mi East 12.7 mph - N/A   Unknown
4:20 PM 21.2 °F 10.9 °F 17.6 °F 86% 30.18 in 4.3 mi East 9.2 mph - N/A   Unknown
4:50 PM 23.0 °F 14.7 °F 17.6 °F 80% 30.15 in 4.3 mi ESE 6.9 mph - N/A   Mostly Cloudy
5:20 PM 21.2 °F 7.3 °F 17.6 °F 86% 30.15 in 6.2 mi ENE 16.1 mph - N/A   Mostly Cloudy
5:50 PM 21.2 °F 5.2 °F 17.6 °F 86% 30.15 in 6.2 mi ENE 21.9 mph - N/A   Mostly Cloudy
6:20 PM 23.0 °F 15.8 °F 17.6 °F 80% 30.15 in 6.2 mi SSE 5.8 mph - N/A   Mostly Cloudy
6:50 PM 19.4 °F - 15.8 °F 86% 30.15 in 5.0 mi Variable 1.2 mph - N/A   Scattered Clouds
7:20 PM 21.2 °F 13.6 °F 17.6 °F 86% 30.15 in 5.0 mi Variable 5.8 mph - N/A   Scattered Clouds
7:50 PM 19.4 °F - 15.8 °F 86% 30.15 in 5.0 mi Variable 2.3 mph - N/A   Scattered Clouds
8:00 PM 19 °F - 17 °F 89%  in 5 mi NE 2.3 mph - -   Mist
8:20 PM 23.0 °F 8.7 °F 19.4 °F 86% 30.12 in 6.2 mi East 18.4 mph - N/A   Scattered Clouds
8:50 PM 21.2 °F 5.2 °F 19.4 °F 93% 30.12 in 6.2 mi East 21.9 mph - N/A   Scattered Clouds
9:20 PM 23.0 °F 9.2 °F 19.4 °F 86% 30.12 in 6.2 mi East 17.3 mph - N/A   Scattered Clouds
9:50 PM 23.0 °F 9.2 °F 19.4 °F 86% 30.12 in 6.2 mi East 17.3 mph - N/A   Scattered Clouds
10:20 PM 23.0 °F 9.6 °F 19.4 °F 86% 30.12 in 6.2 mi East 16.1 mph - N/A   Scattered Clouds
10:50 PM 15.8 °F 7.2 °F 12.2 °F 86% 30.12 in 6.2 mi South 5.8 mph - N/A   Scattered Clouds
11:20 PM 14.0 °F 5.1 °F 12.2 °F 93% 30.12 in 6.2 mi East 5.8 mph - N/A   Scattered Clouds
11:50 PM 17.6 °F 9.3 °F 14.0 °F 86% 30.12 in 6.2 mi East 5.8 mph - N/A   Scattered Clouds